Regional Weather Roundup
Issued by NWS

Home | Current Version | Previous Version | Graphics & Text | Print | Product List | Glossary Off
Versions: 1 2 3 4 5 6 7 8 9 10 11 12 13 14 15 16 17 18 19 20 21 22 23 24 25 26 27 28 29 30 31 32 33 34 35 36 37 38 39 40 41 42 43 44 45 46 47 48 49 50

000
ASUS43 KMKX 010159
RWRWI

WISCONSIN REGIONAL WEATHER ROUNDUP
NATIONAL WEATHER SERVICE MILWAUKEE/SULLIVAN WI
800 PM CST SAT FEB 28 2015

NOTE: "FAIR" INDICATES FEW OR NO CLOUDS BELOW 12,000 FEET WITH NO
SIGNIFICANT WEATHER AND/OR OBSTRUCTIONS TO VISIBILITY.

WIZ001-002-006>008-014>016-023>028-010300-
NORTHWEST WISCONSIN

CITY           SKY/WX    TMP DP  RH WIND       PRES   REMARKS
SUPERIOR ARPT  CLOUDY    18   4  55 SW14G20   30.31S WCI   4
ASHLAND        MOCLDY    15  -2  46 S10       30.32F WCI   2
HAYWARD        MOCLDY    13  -2  51 S14       30.31F WCI  -2
SIREN          MOCLDY    15   1  55 S9        30.34R WCI   3
CUMBERLAND     MOCLDY    10   0  61 S6        30.33S WCI   1
RICE LAKE      CLOUDY    13   1  58 SE8       30.36F WCI   2
CHETEK         CLOUDY    14   0  54 S5        30.36F WCI   6
LADYSMITH      CLOUDY    13  -1  53 S5        30.37S WCI   5
EAU CLAIRE     NOT AVBL
MENOMONIE      CLOUDY    15   1  53 S9        30.38F WCI   4
NEW RICHMOND   PTCLDY    11   2  67 S6        30.36S WCI   2
OSCEOLA        MOCLDY    13   3  64 S7        30.39S WCI   3
$$

WIZ003>005-009-010-017-018-010300-
NORTH CENTRAL WISCONSIN

CITY           SKY/WX    TMP DP  RH WIND       PRES   REMARKS
MANITOWISH WTR MOCLDY    10  -5  50 S8        30.30S WCI  -1
ARBOR VITAE    CLEAR     10  -3  54 S3        30.31F
WOODRUFF       CLEAR     10  -3  54 S3        30.31F
RHINELANDER    MOCLDY     9  -6  50 S6        30.32F WCI  -1
EAGLE RIVER    CLEAR     11  -7  43 S3        30.31F
LAND O LAKES   CLEAR     12  -5  46 SW7       30.31S WCI   1
PHILLIPS       CLOUDY     9  -5  52 S5        30.32S WCI   1
TOMAHAWK       CLOUDY     8  -5  55 CALM      30.35F
MEDFORD        CLOUDY     8  -4  57 S7        30.34F WCI  -3
MERRILL        CLOUDY    13  -3  47 S6        30.37S WCI   4
$$

WIZ029-030-035-036-043>047-010300-
CENTRAL WISCONSIN

CITY           SKY/WX    TMP DP  RH WIND       PRES   REMARKS
WAUSAU         CLOUDY    13  -4  46 S7        30.37F WCI   3
MOSINEE        NOT AVBL
MARSHFIELD     CLOUDY    15  -1  49 S8        30.37F WCI   4
STEVENS POINT  CLOUDY    13  -2  52 S6        30.42S WCI   3
WAUPACA        CLOUDY    16   1  51 S6        30.46F WCI   7
WAUTOMA        NOT AVBL
WISC RAPIDS    CLOUDY    15  -5  40 S8        30.42F WCI   4
CAMP DOUGLAS   NOT AVBL
$$

WIZ011>013-019>022-031-037>040-048>050-010300-
NORTHEAST WISCONSIN

CITY           SKY/WX    TMP DP  RH WIND       PRES   REMARKS
ANTIGO         CLOUDY     8  -3  60 S8        30.36F WCI  -4
SHAWANO        CLEAR     15   1  53 S5        30.45F WCI   8
OCONTO         CLEAR     14  -1  51 S7        30.47F WCI   4
STURGEON BAY   CLEAR     12   3  67 S8        30.48F WCI   1
GREEN BAY      PTCLDY    13   1  59 S6        30.47F WCI   4
MANITOWOC      NOT AVBL
APPLETON       MOCLDY    12   0  57 SW6       30.46F WCI   3
CLINTONVILLE   PTCLDY    14   1  57 S8        30.45F WCI   3
OSHKOSH        CLOUDY    13   2  61 S8        30.47F WCI   2
$$

WIZ032>034-041-042-053>061-010300-
SOUTHWEST WISCONSIN

CITY           SKY/WX    TMP DP  RH WIND       PRES   REMARKS
LA CROSSE      CLOUDY    18   2  49 S10       30.44F WCI   6
SPARTA         CLOUDY    16  -1  45 CALM      30.44F
VIROQUA        CLOUDY    14   2  60 S9        30.39F WCI   1
BOSCOBEL       PTCLDY    13   1  59 CALM      30.48F
PRAIRIE DU CHI PTCLDY    13  -4  46 CALM      30.47F
PLATTEVILLE    PTCLDY    12   3  65 E5        30.45F WCI   4
$$

WIZ056-057-062-063-064-067-068-010300-
SOUTH CENTRAL WISCONSIN

CITY           SKY/WX    TMP DP  RH WIND       PRES   REMARKS
REEDSBURG      CLOUDY    14   1  54 S7        30.45F WCI   4
BARABOO/DELLS  CLOUDY    14   2  60 S9        30.45S WCI   1
LONE ROCK      NOT AVBL
MINERAL POINT  PTCLDY    14   1  57 SE7       30.43F WCI   4
MADISON        MOCLDY    15  -1  49 S6        30.47F WCI   6
MIDDLETON      MOCLDY    14   1  54 S5        30.47F WCI   7
WATERTOWN      MOCLDY    14   1  57 S3        30.48F
MONROE         CLOUDY    14   7  73 S8        30.46F WCI   3
JANESVILLE     CLOUDY    18   3  53 S6        30.49F WCI   9
$$

WIZ051-052-058>065-066-070>072-010300-
SOUTHEAST WISCONSIN

CITY           SKY/WX    TMP DP  RH WIND       PRES   REMARKS
MILWAUKEE      CLOUDY    18   7  62 S7        30.51F WCI   9
WAUKESHA       CLOUDY    16   1  53 S8        30.50S WCI   5
MILWAUKEE/TIMM MOCLDY    18   5  57 S7        30.51F WCI   8
RACINE         CLOUDY    20   8  60 S7        30.53F WCI  11
BURLINGTON     CLOUDY    15   2  56 CALM      30.51S
KENOSHA        CLOUDY    20  10  65 S8        30.51F WCI  10
FOND DU LAC    CLOUDY    15   0  51 S7        30.47F WCI   5
SHEBOYGAN      CLOUDY    15   6  67 S7        30.49F WCI   5
WEST BEND      CLOUDY    18   0  45 S3        30.48S
JUNEAU         CLOUDY    14   0  54 S7        30.49S WCI   4
$$

LSZ147-162-010300-
LAKE SUPERIOR

STATION/POSITION TIME  TEMP    WIND        PRES    WAVE
                       AIR SEA DIR/SP/G            HT/PER
                 (UTC) (F)     (DEG/KT/KT) (MB)    (FT/S)
DEVILS ISLAND    0100   19     200/  9/ 11 1027.7R
PORT WING        0140   17     190/ 11/ 19 1026.4S
SAXON HARBOR     0100   19     200/  6/ 12 1027.1
$$

LMZ867-665-643>646-010300-
LAKE MICHIGAN

STATION/POSITION TIME  TEMP    WIND        PRES    WAVE
                       AIR SEA DIR/SP/G            HT/PER
                 (UTC) (F)     (DEG/KT/KT) (MB)    (FT/S)
NORTHPORT PIER   0101   14     190/  2/  6 1031.8F
SISTER BAY       0113   14        CALM       N/A
KEWAUNEE LAKESHO 0100   18     210/ 12/ 14 1031.8F
SHEBOYGAN LAKESH 0100   19     190/ 15/ 16 1034.6F
PORT WASHINGTON  0100   19     220/  4/  7 1033.9
MILWAUKEE LAKESH 0100   19     210/  7/  7   N/A
KENOSHA   LAKESH 0100   21     170/ 11/ 15 1033.5R
$$

TC  - TEMPERATURE IN CELSIUS
VSB - VISIBILITY IN STATUTE MILES
WCI - WIND CHILL INDEX
HX  - HEAT INDEX




USA.gov is the U.S. government's official web portal to all federal, state and local government web resources and services.